星链-3105 (STARLINK-3105 )

导读

STARLINK-3105是美国太空探索技术公司SpaceX星链星座的卫星,于2021年11月13日发射,属于星链项目第二代组网卫星,主要为全球提供低延迟、高速率的宽带互联网服务,运行在近地轨道,承担全球网络覆盖补充任务,截至2026年已服役约4年零4个月,是星链星座太空互联网布局的组成单元。

基本信息
目录编号:
49440
目录名称:
STARLINK-3105
国际标识:
2021-104AJ
轨道中心:
EARTH
卫星名称:
星链-3105
卫星全名:
星链-3105 (STARLINK-3105 )
卫星状态:
在轨 (已飞行1678 天)
发射日期:
2021-11-13 UTC
国别 :
美国 (US)
星等 :
--
轨道信息
数据来源 国际轨道数据
星历时间: 2026-06-17T10:44:40+0800
1天前
查看轨道信息
半长轴: 6917.91km
偏心率: 0.0001408
轨道倾角: 53.162°
近地点辐角 85.252°
升交点赤经 122.693°
平近点角 274.863°
近地点: 538.798km
远地点: 540.748km
周期: 95.438分钟
每日圈数: 15.088304
详细信息
固有亮度:
5
最大亮度:
2.5
卫星平台:
Starlink v1.5
覆盖范围:
全球
运营商:
太空探索技术公司
运营商所在国:
美国
制造商(研发单位):
太空探索技术公司
制造商所在国:
美国
使用方式:
暂无
卫星简介
星链(Starlink)计划是由太空探索技术公司(SpaceX)提出的一个巨型低轨卫星互联网星座项目,计划在2019年至2024年间在太空搭建由约1.2万颗卫星组成的“星链”网络,其中1584颗将部署在地球上空550千米处的近地轨道,并从2020年开始工作。该卫星仍在工作。
2D轨道图
3D轨道图
轨道高度分析图
轨道倾角分析图
轨道综合分析图
查看轨道综合分析图